Flag for China Weather past 2 weeks in Hangzhou, Zhejiang, China

Now
97 °F

Scattered clouds.


Feels Like: 103 °F
Forecast: 80 / 99 °F
Wind: 6 mph from East

Location: Hangzhou Airport

Current Time: Jul 28, 2015 at 5:30:41 PM

Latest Report: Jul 28, 2015 at 5:00 PM


Visibility: N/A

Pressure: 29.74 "Hg

Humidity: 42%

Dew point: 70 °F

Location of HangzhouLocation

Historic Weather in Hangzhou — Graph

°F

Hangzhou temperature yesterday

Maximum temperature yesterday: 99 °F (at 2:00 PM)
Minimum temperature yesterday: 82 °F (at 3:00 AM)
Average temperature yesterday: 91 °F

Past Weeks' High & Low Weather Summary

 TemperatureHumidityPressure
High100 °F (Jul 28, 2:30 PM)89% (Jul 14, 3:00 AM)29.83 "Hg (Jul 14, 3:00 AM)
Low75 °F (Jul 14, 5:00 AM)27% (Jul 28, 3:30 PM)29.53 "Hg (Jul 16, 4:00 PM)
Average84 °F69%29.65 "Hg
* Reported Jul 13 4:00 PM — Jul 28 4:30 PM, Hangzhou, Weather by CustomWeather, © 2015

Note: Actual official high and low records may vary slightly from our data, if they occured in-between our weather recording intervals... More about our weather records

Advertising

Hangzhou weather history for previous 24 hours

 ConditionsComfort  
Time TempWeatherWind HumidityBarometerVisibility
4:30 PM
Tue, Jul 28
97 °FPartly sunny.6 mph42%29.74 "HgN/A
4:00 PM99 °FPartly sunny.1 mph33%29.74 "HgN/A
3:30 PM100 °FPartly sunny.1 mph27%29.74 "HgN/A
3:00 PM100 °FPartly sunny.No wind29%29.74 "HgN/A
2:30 PM100 °FPartly sunny.1 mph33%29.74 "HgN/A
2:00 PM99 °FPartly sunny.1 mph35%29.77 "HgN/A
1:30 PM99 °FPartly sunny.1 mph35%29.77 "HgN/A
1:00 PM99 °FPartly sunny.1 mph35%29.77 "HgN/A
12:30 PM97 °FPassing clouds.1 mph39%29.77 "HgN/A
12:00 PM97 °FPassing clouds.1 mph42%29.80 "HgN/A
11:30 AM97 °FPassing clouds.6 mph42%29.80 "HgN/A
11:00 AM95 °FPassing clouds.6 mph44%29.80 "HgN/A
10:30 AM95 °FSunny.8 mph44%29.80 "Hg10 mi
10:00 AM95 °FSunny.10 mph44%29.83 "Hg10 mi
9:30 AM93 °FSunny.10 mph49%29.83 "Hg10 mi
9:00 AM93 °FPassing clouds.8 mph47%29.83 "HgN/A
8:30 AM91 °FPassing clouds.6 mph52%29.83 "HgN/A
8:00 AM90 °FPassing clouds.6 mph55%29.83 "HgN/A
7:30 AM88 °FSunny.6 mph59%29.80 "Hg10 mi
7:00 AM86 °FSunny.6 mph62%29.80 "Hg10 mi
6:30 AM86 °FSunny.3 mph70%29.80 "Hg10 mi
6:00 AM82 °FSunny.1 mph74%29.77 "Hg10 mi
5:30 AM82 °FSunny.No wind74%29.77 "Hg10 mi
5:00 AM84 °FClear.1 mph70%29.77 "Hg10 mi
4:30 AM82 °FClear.1 mph74%29.77 "Hg10 mi
4:00 AM82 °FClear.3 mph74%29.77 "Hg10 mi
3:30 AM82 °FClear.3 mph74%29.77 "Hg10 mi
3:00 AM84 °FClear.1 mph70%29.77 "Hg10 mi
2:30 AM84 °FClear.1 mph70%29.77 "Hg10 mi
2:00 AM86 °FClear.3 mph66%29.77 "Hg10 mi
1:30 AM84 °FClear.3 mph70%29.77 "Hg10 mi
1:00 AM86 °FClear.3 mph66%29.77 "Hg10 mi
12:30 AM86 °FClear.1 mph66%29.77 "Hg10 mi
12:00 AM86 °FClear.3 mph66%29.77 "Hg10 mi
11:30 PM
Mon, Jul 27
86 °FClear.3 mph66%29.77 "Hg10 mi
11:00 PM86 °FClear.3 mph66%29.80 "Hg10 mi
10:30 PM88 °FClear.3 mph62%29.77 "Hg10 mi
10:00 PM88 °FClear.3 mph62%29.77 "Hg10 mi
9:30 PM90 °FClear.1 mph63%29.77 "Hg10 mi
9:00 PM90 °FClear.No wind59%29.77 "Hg10 mi
8:30 PM91 °FClear.No wind52%29.77 "Hg10 mi
8:00 PM93 °FClear.1 mph49%29.77 "Hg10 mi
7:30 PM93 °FClear.1 mph49%29.74 "Hg10 mi
7:00 PM93 °FPassing clouds.3 mph49%29.74 "HgN/A
6:30 PM95 °FPassing clouds.3 mph47%29.74 "HgN/A
6:00 PM97 °FScattered clouds.3 mph42%29.74 "HgN/A
5:30 PM97 °FScattered clouds.3 mph44%29.74 "HgN/A
5:00 PM99 °FScattered clouds.3 mph39%29.74 "HgN/A
Weather by CustomWeather, © 2015

See weather overviewHow to use our weather pages